www.pogodaiklimat.ru

Погода и климат >> Архив погоды >> Бахрейн >> Бахрейн


АРХИВ ПОГОДЫ в Бахрейне

Время (UTC), дата Ветер
(напр.,м/с)
 
Видим.   Явления Облачность Т
(С)
Тd
(С)
f
(%)
Тe
(С)
Тes
(С)
Комфортность P
(гПа)
Po
(гПа)
Тmin
(С)
Tmax
(С)
R
(мм)
R24
(мм)
S
(см)
03 15.04 З 4 16 км ясно +22.7 +13.3 55 +26 +26 жарко 1012.6 1012.4
06 15.04 З 5 20 км ясно +26.3 +9.9 36 +27 +35 жарко 1014.5 1014.3 +22.5
09 15.04 СЗ 4 16 км ясно +29.8 +7.1 24 +29 +42 жарко 1013.7 1013.5
12 15.04 С 4 16 км ясно +30.5 +1.3 15 +28 +35 жарко 1012.1 1011.9
15 15.04 С 2 16 км 1/0
[Ci fib]
+26.8 +7.0 28 +26 +26 жарко 1012.3 1012.1
18 15.04 В 1 16 км ясно +25.2 +11.6 43 +27 +27 жарко 1013.2 1013.0 +30.8
21 15.04 ЮЗ 2 16 км ясно +24.6 +10.7 42 +26 +26 жарко 1012.6 1012.4
00 16.04 ЮЗ 3 16 км ясно +25.5 +8.3 34 +26 +26 жарко 1011.0 1010.8
03 16.04 нст 1 16 км 5/0
[Cs]
+24.7 +13.1 48 +27 +27 жарко 1012.2 1012.0
06 16.04 ЮЗ 2 18 км 3/0
[Ci fib]
+30.7 +6.9 23 +29 +42 жарко 1013.3 1013.1 +24.3
09 16.04 З 4 18 км 4/0
[Cc]
+33.4 +0.5 12 +30 +44 жарко 1012.5 1012.3
12 16.04 В 4 12 км 4/0
[Ci fib]
+30.9 +11.6 31 +31 +37 жарко 1010.7 1010.5
15 16.04 В 4 12 км 6/0
[Ci sp]
+27.0 +19.0 62 +32 +32 очень
душно
1010.6 1010.4
18 16.04 В 3 14 км 5/0
[Ci sp]
+25.9 +18.9 65 +31 +31 очень
душно
1011.6 1011.4 +34.4
21 16.04 ЮВ 3 14 км ясно +26.9 +9.1 33 +27 +27 жарко 1010.6 1010.4
00 17.04 Ю 2 16 км 4/0
[Ci sp]
+25.9 +16.9 58 +30 +30 душно 1009.3 1009.1
03 17.04 Ю 4 16 км 5/0
[Ci sp]
+26.1 +15.1 51 +29 +29 жарко 1010.4 1010.2
06 17.04 нст 3 16 км 3/0
[Ci fib]
+30.6 +13.3 35 +32 +42 жарко 1011.2 1011.0 +25.4
09 17.04 Ю 4 14 км 5/0
[Ci sp]
+36.6 +1.9 11 +33 +45 жарко 1010.6 1010.4
12 17.04 В 5 12 км 3/0
[Ci fib]
+32.3 +15.2 36 +35 +39 очень
душно
1009.0 1008.8
15 17.04 В 5 12 км 4/0
[Ac trans Ci fib]
+27.8 +19.2 60 +33 +33 очень
душно
1008.9 1008.7
18 17.04 ЮВ 5 12 км 3/0
[Ac trans]
+28.7 +15.1 44 +31 +31 жарко 1009.9 1009.7 +37.9
21 17.04 Ю 4 14 км 3/0
[Ci sp]
+28.5 +16.0 47 +32 +32 душно 1009.4 1009.2
00 18.04 Ю 4 14 км 4/0
[Ci sp]
+27.1 +16.3 52 +31 +31 душно 1008.7 1008.5
06 18.04 Ю 4 16 км 6/0
[Ac trans]
+31.4 +9.9 27 +31 +37 жарко 1012.0 1011.8 +25.8
09 18.04 Ю 5 16 км 5/0
[Ac cast]
+33.3 +4.5 16 +31 +37 жарко 1010.6 1010.4
12 18.04 В 6 14 км 4/0
[Ac cast]
+29.7 +19.3 54 +35 +38 очень
душно
1008.7 1008.5
15 18.04 В 7 12 км 3/0
[Ac trans Ci fib]
+27.5 +20.7 66 +34 +34 очень
душно
1007.6 1007.4
18 18.04 ЮВ 5 12 км 3/0 270 м
[Ac trans]
+27.1 +18.6 60 +32 +32 очень
душно
1009.0 1008.8 +34.8
21 18.04 ЮВ 4 12 км 6/0
[Ac trans]
+27.2 +16.4 52 +31 +31 душно 1008.8 1008.6
00 19.04 ЮВ 5 14 км 5/0
[Ac trans]
+26.7 +17.6 57 +31 +31 душно 1007.2 1007.0
03 19.04 ЮВ 4 14 км 4/0
[Ac trans]
+27.9 +15.4 47 +31 +31 душно 1008.0 1007.8
06 19.04 Ю 4 14 км 5/0
[Ac cast]
+29.6 +16.7 46 +33 +39 душно 1009.7 1009.5 +26.8
09 19.04 ЮЗ 3 14 км 1/0
[Ac trans]
+34.9 +8.4 20 +33 +49 жарко 1009.1 1008.9
12 19.04 В 4 14 км 4/4 1200 м
[Sc diur, vesp]
+34.8 +11.0 24 +34 +39 очень
жарко
1006.6 1006.4
15 19.04 В 3 12 км 4/4 1050 м
[Sc]
+30.9 +16.8 43 +34 +34 душно 1006.2 1006.0
18 19.04 С 4 12 км ясно +26.4 +19.9 67 +32 +32 очень
душно
1008.8 1008.6 +37.1
21 19.04 С 4 12 км 3/0
[Ac trans]
+25.6 +20.5 73 +32 +32 очень
душно
1008.0 1007.8
00 20.04 С 3 12 км 4/0
[Ac trans]
+25.4 +18.9 67 +30 +30 душно 1006.9 1006.7
03 20.04 С 3 12 км ясно +25.7 +19.5 69 +31 +32 очень
душно
1007.3 1007.1
06 20.04 СВ 4 12 км 3/0
[Ac trans]
+28.5 +17.0 50 +32 +40 душно 1008.5 1008.3 +25.3
09 20.04 В 4 14 км 3/0
[Ac trans]
+30.2 +18.2 49 +35 +48 очень
душно
1008.5 1008.3
12 20.04 СВ 4 12 км 4/0
[Ac trans]
+29.8 +15.4 42 +33 +38 душно 1006.6 1006.4
15 20.04 С 7 9000 м мгла 1/1 900 м
[Cu hum]
+26.2 +22.1 78 +34 +34 очень
душно
1006.8 1006.6
18 20.04 С 6 5000 м мгла 1/0
[Ac trans]
+24.6 +21.2 81 +31 +31 очень
душно
1008.2 1008.0 +30.8
21 20.04 С 5 12 км ясно +25.0 +18.6 68 +30 +30 душно 1007.7 1007.5
00 21.04 С 6 12 км ясно +25.4 +17.0 60 +29 +29 душно 1006.9 1006.7
03 21.04 С 6 20 км 6/0
[Ac trans]
+24.2 +18.5 70 +29 +29 душно 1007.8 1007.6
06 21.04 С 7 16 км в посл. час дождь 9/3 900 м
[Cu hum Ac cast]
+25.3 +18.4 66 +30 +31 душно 1008.9 1008.7 +24.0
09 21.04 С 4 14 км в посл. час дождь 8/8 900 м
[]
+26.8 +17.7 57 +31 +34 душно 1007.4 1007.2
12 21.04 СЗ 9 14 км 5/0
[Ac cast]
+27.5 +19.5 62 +33 +34 очень
душно
1005.7 1005.5 0.0
15 21.04 СЗ 5 14 км 5/0
[Ac cast]
+25.7 +19.2 67 +31 +31 очень
душно
1004.8 1004.6
18 21.04 СЗ 5 12 км в посл. час дождь 5/5 900 м
[]
+25.2 +19.7 72 +31 +31 очень
душно
1005.9 1005.7 +28.3
21 21.04 С 3 12 км в посл. час гроза {ливн. осадки} 6/0
[Ac trans]
+24.5 +19.4 73 +30 +30 очень
душно
1004.7 1004.5
00 22.04 нст 1 12 км {гроза} 6/0
[Ac trans]
+24.7 +20.3 77 +31 +31 очень
душно
1005.5 1005.3

 

Местоположение метеостанции Бахрейн (Бахрейн): широта 26.27 долгота 50.65 высота над уровнем моря 2 м.

В архиве по умолчанию представлена погода в Бахрейне за последнюю неделю. Архивные данные за месяц целиком и за предыдущие месяцы, начиная с января 2011 года, Вы можете получить, выбрав интересующий диапазон дат из раскрывающегося списка и нажав кнопку "Ввод!".


*Определитесь, кто Вы:
робот инопланетянин человек

Внимание! Время в таблицах - всемирное. Для получения местного времени необходимо прибавить поправку, которая равна 4 ч.

Смотрите также архив погоды в соседних городах и на ближайших метеорологических станциях:

Погода в Дахране (Саудовская Аравия) (48 км)
Погода в Эд-Даммаме (Саудовская Аравия) (85 км)
Погода в Духане (Катар) (97 км)
Погода в Дохе (Катар) (146 км)
Погода в Аэропорту Хамад (Катар) (147 км)
Погода в Эль-Хуфуфе (Саудовская Аравия) (159 км)
Погода в Доха порту (Катар) (166 км)
Погода в Абу Самба (Катар) (170 км)
Погода в Бендер-Дейере (Иран) (215 км)
Погода в Бушире (Иран) (299 км)

Пояснения к столбцам:

Ветер - указаны скорость ветра в м/с - средняя за 10 мин, порывы в срок и между сроками (в фигурных скобках) и направление, откуда дует ветер: С - северный, СВ - северо-восточный, В - восточный, ЮВ - юго-восточный, Ю - южный, ЮЗ - юго-западный, З - западный, СЗ - северо-западный.
Видимость - горизонтальная дальность видимости в метрах или километрах. При видимости от 1 до 10 км при отсутствии осадков обычно наблюдается дымка, при ухудшении видимости до 1 км и менее - туман. В сухую погоду видимость может ухудшаться дымом, пылью или мглою.
Явления - указаны атмосферные явления, наблюдавшиеся в срок или в последний час перед сроком; фигурными скобками обозначены явления, наблюдавшиеся между сроками (за 1-3 часа до срока); квадратными скобками обозначены град или гололедные отложения с указанием их диаметра в мм.
Облачность - указаны через наклонную черту общая и нижняя облачность в баллах и высота нижней границы облаков в метрах; квадратными скобками обозначены формы облаков: Ci - перистые, Cs - перисто-слоистые, Cc - перисто-кучевые, Ac - высококучевые, As - высокослоистые, Sc - слоисто-кучевые, Ns - слоисто-дождевые, Cu - кучевые, Cb - кучево-дождевые. Подробнее классификацию облаков см. в Атласе облаков (PDF).
T - Температура воздуха - температура, измеренная на высоте 2 м над землей.
Td - Температура точки росы - температура, при понижении до которой содержащийся в воздухе водяной пар достигнет насыщения.
f - Относительная влажность воздуха - влажноcть воздуха, измеренная на высоте 2 м над землей.
Te - Эффективная температура - температура, которую ощущает одетый по сезону человек в тени. Характеристика душности погоды. При расчете учитывается влияние влажности воздуха и скорости ветра на теплоощущения человека.
Tes - Эффективная температура на солнце - температура, которую ощущает человек, с поправкой на солнечный нагрев. Характеристика знойности погоды. Зависит от высоты солнца над горизонтом, облачности и скорости ветра. Ночью, в пасмурную погоду, а также при ветре 12 м/с и более поправка равна нулю.
P - Атмосферное давление - приведенное к уровню моря атмосферное давление.
Po - Атмосферное давление - измеренное на уровне метеостанции атмосферное давление.
Tmin - Минимальная температура - минимум температуры воздуха на высоте 2 м над землей.
Tmax - Максимальная температура - максимум температуры воздуха на высоте 2 м над землей.
R - Количество осадков - Количество выпавших осадков за период времени, мм. При наведении курсора мыши на число - период времени, за который выпало указанное количество осадков.
R24 - Количество осадков - Количество выпавших осадков за 24 часа, мм.
S - Снежный покров - Высота снежного покрова, см. При наведении курсора мыши на число - состояние снежного покрова и степень покрытия местности в баллах.